Regional Weather Roundup
Issued by NWS Midland/Odessa, TX

Home | Current Version | Previous Version | Text Only | Print | Product List | Glossary On
Versions: 1 2 3 4 5 6 7 8 9 10 11 12 13 14 15 16 17 18 19 20 21 22 23 24 25 26 27 28 29 30 31 32 33 34 35 36 37 38 39 40 41 42 43 44 45 46 47 48 49 50
000
ASUS44 KMAF 050310
RWRMAF
MIDLAND AREA WEATHER ROUNDUP
NATIONAL WEATHER SERVICE MIDLAND TX
1000 PM CDT SAT JUL 04 2015

...IN SOUTHWEST TEXAS AND SOUTHEAST NEW MEXICO...

CITY           SKY/WX    TMP DP  RH WIND       PRES   REMARKS
ALPINE         MOCLDY    74  63  67 S6        30.13R
ANDREWS        FAIR      80  60  50 SE7       30.01R
ARTESIA        PTCLDY    84  57  39 SE8       29.99R
BIG SPRING     CLEAR     82  58  44 SE6       30.01R
CARLSBAD       PTCLDY    84  59  42 SE10      29.96R
DRYDEN           N/A     84  66  54 VRB6      29.94R
FORT STOCKTON  CLEAR     81  62  52 SE12      29.99R
GUAD PASS      CLEAR     76  57  51 E22       30.14R
HOBBS          PTCLDY    79  59  50 SE8       30.03R
MARFA          MOCLDY   N/A N/A N/A SE9       30.12R
MIDLAND AIRPK  CLEAR     84  59  43 S9        30.00R
MIDLAND INTL   CLEAR     81  62  52 S8        29.99R
ODESSA         CLEAR     82  59  45 S9        30.00R
PECOS          CLEAR     84  60  44 E13       29.95R
PRESIDIO       FAIR      84  63  48 MISG      29.95R
SEMINOLE       CLEAR     79  59  50 SE6       30.02R
SNYDER         CLEAR     79  64  59 S7        29.98S
WINK           PTCLDY    84  61  45 SE9       29.95R
$$
...OTHER STATIONS IN TEXAS...

CITY           SKY/WX    TMP DP  RH WIND       PRES   REMARKS
ABILENE        CLEAR     81  64  56 SE7       29.95R
AMARILLO       PTCLDY    78  60  53 S13       30.00R
AUSTIN         PTCLDY    80  73  79 S9        29.96R
BROWNSVILLE    MOCLDY    80  73  79 SE9       29.95S
CORPUS CHRISTI PTCLDY    79  72  79 SE9       29.96R
DALLAS FTW     MOCLDY    86  70  58 SE8       29.93R
DEL RIO        CLEAR     85  70  60 E10       29.88R
EL PASO        TSTM      74  65  73 E13       30.02R
HOUSTON INT    PTCLDY    82  74  76 S5        29.99R
LUBBOCK        MOCLDY    81  62  52 S10       30.00R
SAN ANGELO     CLEAR     83  64  52 S7        29.95R
SAN ANTONIO    PTCLDY    82  73  74 SE12      29.97R
WACO           MOCLDY    83  72  69 S14       29.95R
WICHITA FALLS  NOT AVBL
$$
...OTHER LOCATIONS IN NEW MEXICO...

CITY           SKY/WX    TMP DP  RH WIND       PRES   REMARKS
ALAMAGORDO     MOCLDY    84  54  34 NE6       29.99R
ALBUQUERQUE    CLOUDY    79  53  40 W10       30.10R
CANNON AFB     CLOUDY    74  61  64 S8        30.04R
CLOVIS         CLOUDY    75  57  53 S8          N/A
HOLLOMAN AFB   MOCLDY    85  53  33 SW17      29.98R
ROSWELL        CLOUDY    82  55  39 SE5       29.98R
RUIDOSO        NOT AVBL
SANTA FE       CLOUDY    71  55  56 SE5       30.16R
TRUTH OR CONSE CLOUDY    71  60  68 N9        30.10R
TUCUMCARI      CLOUDY    81  56  42 S9        29.99R
$$



USA.gov is the U.S. government's official web portal to all federal, state and local government web resources and services.